St. Cloud, MN

11:47 AM CDT on March 28, 2017 (GMT -0500)
Saint Cloud Regional

Weather History for KSTC - November, 2012

Change the Weather History Date:

Sunday, November 25, 2012

  Actual Average Record
Temperature  
Mean Temperature 21 °F 25 °F  
Max Temperature 29 °F 33 °F 58 °F (1914)
Min Temperature 13 °F 16 °F -13 °F (1977)
Degree Days  
Heating Degree Days 44 40  
Month to date heating degree days 752 830  
Since 1 July heating degree days 1619 1715  
Cooling Degree Days 0 0  
Month to date cooling degree days 0 0  
Year to date cooling degree days 739 465  
Moisture  
Dew Point 18 °F    
Average Humidity 70    
Maximum Humidity 81    
Minimum Humidity 59    
Precipitation  
Precipitation T in 0.04 in 1.40 in (1896)
Month to date precipitation 1.18 1.19  
Year to date precipitation 23.64 26.72  
Snow  
Snow T in 0.30 in 7.80 in (1993)
Month to date snowfall 2.9 6.6  
Since 1 July snowfall 3.2 7.4  
Since 1 September snowfall 3.2 7.4  
Snow Depth 2.00 in    
Sea Level Pressure  
Sea Level Pressure 30.03 in    
Wind  
Wind Speed 10 mph (NW)    
Max Wind Speed 22 mph    
Max Gust Speed 28 mph    
Visibility 10 miles    
Events Snow    
T = Trace of Precipitation, MM = Missing Value Source: NWS Daily Summary

Daily Weather History Graph

Daily Weather History Graph

Search for Another Location

Airport or City:

Trip Planner

Search our weather history database for the weather conditions in past years. The results will help you decide how hot, cold, wet, or windy it might be!

Date:

Astronomy

Nov. 25, 2012 Rise Set
Actual Time 7:29 AM CST 4:37 PM CST
Civil Twilight 6:56 AM CST 5:10 PM CST
Nautical Twilight 6:19 AM CST 5:46 PM CST
Astronomical Twilight 5:44 AM CST 6:22 PM CST
Moon 2:59 PM CST (11/25) 4:38 AM CST (11/25)
Length of Visible Light 10h 13m
Length of Day
9h 07m
Waxing Gibbous, 93% of the Moon is Illuminated
Nov 25
Waxing Gibbous
Nov 28
Full
Dec 6
Last Quarter
Dec 13
New
Dec 19
First Quarter

Hourly Weather History & Observations

Time (CST) Temp. Windchill Dew Point Humidity Pressure Visibility Wind Dir Wind Speed Gust Speed Precip Events Conditions
12:53 AM 27.0 °F 18.0 °F 19.9 °F 75% 29.88 in 10.0 mi NW 9.2 mph - N/A   Overcast
1:53 AM 28.0 °F 20.8 °F 19.9 °F 72% 29.88 in 10.0 mi NNW 6.9 mph - N/A   Overcast
2:53 AM 28.9 °F 19.2 °F 21.0 °F 72% 29.92 in 10.0 mi NW 11.5 mph 18.4 mph N/A   Overcast
3:53 AM 28.0 °F 18.1 °F 21.9 °F 78% 29.92 in 10.0 mi NNW 11.5 mph 19.6 mph N/A   Overcast
4:53 AM 28.0 °F 20.0 °F 21.9 °F 78% 29.95 in 10.0 mi NNW 8.1 mph - N/A   Overcast
5:53 AM 28.0 °F 18.6 °F 21.0 °F 75% 29.95 in 10.0 mi NW 10.4 mph - N/A   Overcast
6:53 AM 26.1 °F 16.2 °F 19.9 °F 78% 29.97 in 10.0 mi NW 10.4 mph - N/A   Overcast
7:53 AM 25.0 °F 15.5 °F 19.0 °F 78% 29.99 in 10.0 mi WNW 9.2 mph - N/A   Overcast
8:53 AM 25.0 °F 13.6 °F 19.0 °F 78% 30.01 in 10.0 mi NW 12.7 mph - N/A   Overcast
9:53 AM 24.1 °F 16.0 °F 17.1 °F 75% 30.04 in 10.0 mi NW 6.9 mph - N/A   Overcast
10:53 AM 25.0 °F 18.1 °F 18.0 °F 75% 30.04 in 10.0 mi NNW 5.8 mph - N/A   Overcast
11:53 AM 26.1 °F 15.6 °F 19.9 °F 78% 30.04 in 10.0 mi WNW 11.5 mph - N/A   Overcast
12:53 PM 28.0 °F 18.1 °F 19.9 °F 72% 30.03 in 10.0 mi West 11.5 mph - N/A   Overcast
1:53 PM 28.9 °F 20.4 °F 19.9 °F 69% 30.02 in 10.0 mi West 9.2 mph - N/A   Overcast
2:53 PM 28.9 °F 19.2 °F 21.0 °F 72% 30.03 in 10.0 mi WNW 11.5 mph - N/A   Overcast
3:53 PM 28.9 °F 19.8 °F 21.9 °F 75% 30.04 in 10.0 mi WNW 10.4 mph - N/A   Overcast
4:10 PM 28.4 °F 20.4 °F 21.2 °F 74% 29.98 in 10.0 mi WNW 8.1 mph - N/A   Overcast
4:53 PM 28.9 °F 21.9 °F 21.0 °F 72% 30.06 in 10.0 mi West 6.9 mph - N/A   Overcast
5:18 PM 28.4 °F 20.4 °F 21.2 °F 74% 29.99 in 7.0 mi WNW 8.1 mph - 0.00 in Snow Light Snow
5:28 PM 28.4 °F 21.2 °F 21.2 °F 74% 29.99 in 8.0 mi West 6.9 mph - 0.00 in   Overcast
5:53 PM 28.9 °F 21.9 °F 21.9 °F 75% 30.06 in 10.0 mi West 6.9 mph - 0.00 in   Overcast
6:07 PM 28.4 °F 16.2 °F 21.2 °F 74% 30.01 in 10.0 mi WNW 17.3 mph 23.0 mph N/A   Overcast
6:29 PM 28.4 °F 17.0 °F 15.8 °F 59% 30.02 in 10.0 mi NW 15.0 mph 26.5 mph N/A   Overcast
6:53 PM 26.1 °F 14.0 °F 15.1 °F 63% 30.10 in 10.0 mi NW 15.0 mph 23.0 mph N/A   Overcast
7:53 PM 26.1 °F 14.0 °F 17.1 °F 69% 30.13 in 10.0 mi NW 15.0 mph - N/A   Overcast
8:53 PM 23.0 °F 11.1 °F 10.9 °F 60% 30.16 in 10.0 mi NW 12.7 mph - N/A   Scattered Clouds
9:53 PM 19.9 °F 7.9 °F 8.1 °F 60% 30.19 in 10.0 mi NW 11.5 mph - N/A   Clear
10:53 PM 17.1 °F 5.8 °F 6.1 °F 62% 30.22 in 10.0 mi NW 9.2 mph - N/A   Clear
11:53 PM 14.0 °F -0.2 °F 5.0 °F 67% 30.26 in 10.0 mi NW 12.7 mph - N/A   Clear